Doylestown, PA

3:31 AM EST on December 11, 2019 (GMT -0500)
Doylestown

Weather History for KDYL - October, 2019

Change the Weather History Date:

Saturday, October 12, 2019

  Actual Average (KTTN) Record (KTTN)
Temperature  
Mean Temperature 58 °F -  
Max Temperature 72 °F 63 °F 86 °F (1912)
Min Temperature 46 °F 44 °F 33 °F (1906)
Degree Days  
Heating Degree Days 6    
Growing Degree Days 8 (Base 50)    
Moisture  
Dew Point 45 °F    
Average Humidity 64    
Maximum Humidity 86    
Minimum Humidity 42    
Precipitation  
Precipitation 0.00 in - - ()
Sea Level Pressure  
Sea Level Pressure 29.99 in    
Wind  
Wind Speed 1 mph (WNW)    
Max Wind Speed 7 mph    
Max Gust Speed -    
Visibility 10 miles    
Events      
Averages and records for this station are not official NWS values.
T = Trace of Precipitation, MM = Missing Value Source: NWS Daily Summary

Daily Weather History Graph

Daily Weather History Graph

Search for Another Location

Airport or City:

Astronomy

Oct. 12, 2019 Rise Set
Actual Time 7:07 AM EDT 6:25 PM EDT
Civil Twilight 6:40 AM EDT 6:52 PM EDT
Nautical Twilight 6:08 AM EDT 7:24 PM EDT
Astronomical Twilight 5:37 AM EDT 7:55 PM EDT
Moon 6:20 PM EDT (10/12) 5:42 AM EDT (10/12)
Length of Visible Light 12h 12m
Length of Day
11h 17m
Waxing Gibbous, 99% of the Moon is Illuminated
Oct 12
Waxing Gibbous
Oct 13
Full
Oct 21
Last Quarter
Oct 27
New
Nov 4
First Quarter

Hourly Weather History & Observations

Time (EDT) Temp. Dew Point Humidity Pressure Visibility Wind Dir Wind Speed Gust Speed Precip Events Conditions
12:54 AM 50.0 °F 43.0 °F 77% 30.03 in 10.0 mi Calm Calm - N/A   Clear
1:54 AM 50.0 °F 43.0 °F 77% 30.02 in 10.0 mi Calm Calm - N/A   Clear
2:54 AM 50.0 °F 42.1 °F 74% 30.00 in 10.0 mi Calm Calm - N/A   Clear
3:54 AM 46.9 °F 42.1 °F 83% 30.00 in 10.0 mi Calm Calm - N/A   Clear
4:54 AM 48.0 °F 43.0 °F 83% 29.98 in 10.0 mi Calm Calm - N/A   Clear
5:54 AM 46.9 °F 42.1 °F 83% 29.99 in 10.0 mi Calm Calm - N/A   Clear
6:54 AM 46.0 °F 42.1 °F 86% 30.00 in 10.0 mi Calm Calm - N/A   Clear
7:54 AM 48.9 °F 43.0 °F 80% 29.99 in 10.0 mi Calm Calm - N/A   Clear
8:54 AM 55.9 °F 44.1 °F 64% 30.00 in 10.0 mi Calm Calm - N/A   Clear
9:54 AM 57.9 °F 44.1 °F 60% 30.01 in 10.0 mi North 4.6 mph - N/A   Clear
10:54 AM 63.0 °F 46.0 °F 54% 30.00 in 10.0 mi Calm Calm - N/A   Clear
11:54 AM 66.0 °F 46.0 °F 48% 29.99 in 10.0 mi Variable 4.6 mph - N/A   Partly Cloudy
12:54 PM 66.9 °F 46.0 °F 47% 29.97 in 10.0 mi Variable 4.6 mph - N/A   Overcast
1:54 PM 69.1 °F 46.0 °F 44% 29.95 in 10.0 mi Calm Calm - N/A   Mostly Cloudy
2:54 PM 71.1 °F 46.9 °F 42% 29.94 in 10.0 mi NNW 5.8 mph - N/A   Mostly Cloudy
3:54 PM 66.9 °F 46.0 °F 47% 29.95 in 10.0 mi West 6.9 mph - N/A   Overcast
4:54 PM 66.0 °F 46.9 °F 50% 29.95 in 10.0 mi Variable 6.9 mph - N/A   Overcast
5:54 PM 64.9 °F 46.9 °F 52% 29.96 in 10.0 mi WSW 4.6 mph - N/A   Partly Cloudy
6:54 PM 63.0 °F 46.9 °F 56% 29.98 in 10.0 mi West 3.5 mph - N/A   Clear
8:54 PM 61.0 °F 48.0 °F 62% 30.00 in 10.0 mi Calm Calm - N/A   Mostly Cloudy
9:54 PM 59.0 °F 48.0 °F 67% 30.01 in 10.0 mi West 3.5 mph - N/A   Clear
10:54 PM 57.9 °F 48.0 °F 70% 30.01 in 10.0 mi West 3.5 mph - N/A   Clear
11:54 PM 55.9 °F 48.0 °F 75% 30.01 in 10.0 mi NW 3.5 mph - N/A   Clear